Weather History for Ely, NV

Change the Weather History Date:

Saturday, May 19, 2012

  Actual Average Record
Temperature  
Mean Temperature 48 °F 52 °F  
Max Temperature 73 °F 69 °F 88 °F (2008)
Min Temperature 23 °F 34 °F 17 °F (1960)
Degree Days  
Heating Degree Days 17 13  
Month to date heating degree days 234 302  
Since 1 July heating degree days 6440 7205  
Cooling Degree Days 0 0  
Month to date cooling degree days 0 0  
Year to date cooling degree days 0 0  
Moisture  
Dew Point 9 °F    
Average Humidity 32    
Maximum Humidity 55    
Minimum Humidity 9    
Precipitation  
Precipitation 0.00 in 0.04 in 0.80 in (1904)
Month to date precipitation T 0.66  
Year to date precipitation 3.76 3.99  
Snow  
Snow 0.00 in 0.10 in 2.20 in (1974)
Month to date snowfall 0.0 1.9  
Since 1 July snowfall 51.3 50.3  
Snow Depth 0.00 in    
Sea Level Pressure  
Sea Level Pressure 29.98 in    
Wind  
Wind Speed 7 mph (SW)    
Max Wind Speed 16 mph    
Max Gust Speed 23 mph    
Visibility 10 miles    
Events      
T = Trace of Precipitation, MM = Missing Value Source: NWS Daily Summary

Daily Weather History Graph

Daily Weather History Graph

Search for Another Location

Airport:

Trip Planner

Search our weather history database for the weather conditions in past years. The results will help you decide how hot, cold, wet, or windy it might be!

Date:

Astronomy

May. 19, 2012 Rise Set
Actual Time 5:22 AM PDT 7:50 PM PDT
Civil Twilight 4:51 AM PDT 8:20 PM PDT
Nautical Twilight 4:13 AM PDT 8:59 PM PDT
Astronomical Twilight 3:31 AM PDT 9:41 PM PDT
Moon 4:27 AM PDT 6:58 PM PDT
Length of Visible Light 15h 29m
Length of Day
14h 28m
Waning Crescent, 1% of the Moon is Illuminated
May 19
Waning Crescent
May 20
New
May 28
First Quarter
Jun 4
Full
Jun 11
Last Quarter

Hourly Weather History & Observations

Time (PDT) Temp. Windchill Dew Point Humidity Pressure Visibility Wind Dir Wind Speed Gust Speed Precip Events Conditions
12:53 AM 28.0 °F 19.3 °F 12.9 °F 53% 30.00 in 10.0 mi South 9.2 mph - N/A   Clear
1:53 AM 30.0 °F 20.0 °F 10.0 °F 43% 29.99 in 10.0 mi South 12.7 mph - N/A   Clear
2:53 AM 26.1 °F 16.8 °F 10.0 °F 51% 30.01 in 10.0 mi South 9.2 mph - N/A   Clear
3:53 AM 26.1 °F 15.0 °F 12.0 °F 55% 30.00 in 10.0 mi South 12.7 mph - N/A   Clear
4:53 AM 27.0 °F 17.3 °F 8.1 °F 45% 30.01 in 10.0 mi South 10.4 mph - N/A   Clear
5:53 AM 25.0 °F 14.2 °F 10.0 °F 53% 30.03 in 10.0 mi South 11.5 mph - N/A   Clear
6:53 AM 34.0 °F 28.0 °F 10.0 °F 37% 30.01 in 10.0 mi South 6.9 mph - N/A   Clear
7:53 AM 44.1 °F 42.5 °F 10.9 °F 26% 30.00 in 10.0 mi Variable 3.5 mph - N/A   Clear
8:53 AM 53.1 °F - 10.0 °F 18% 29.99 in 10.0 mi Calm Calm - N/A   Clear
9:53 AM 57.9 °F - 9.0 °F 14% 29.98 in 10.0 mi NW 3.5 mph - N/A   Clear
10:53 AM 59.0 °F - 7.0 °F 13% 29.98 in 10.0 mi SW 4.6 mph - N/A   Clear
11:53 AM 63.0 °F - 3.0 °F 9% 29.99 in 10.0 mi North 8.1 mph - N/A   Clear
12:53 PM 64.9 °F - 3.0 °F 9% 29.99 in 10.0 mi Variable 6.9 mph - N/A   Clear
1:53 PM 68.0 °F - 6.1 °F 9% 29.96 in 10.0 mi WNW 8.1 mph - N/A   Clear
2:53 PM 70.0 °F - 9.0 °F 9% 29.96 in 10.0 mi WNW 9.2 mph 17.3 mph N/A   Clear
3:53 PM 70.0 °F - 9.0 °F 9% 29.94 in 10.0 mi WNW 11.5 mph 18.4 mph N/A   Clear
4:53 PM 71.1 °F - 9.0 °F 9% 29.93 in 10.0 mi Variable 3.5 mph - N/A   Clear
5:53 PM 70.0 °F - 9.0 °F 9% 29.94 in 10.0 mi Calm Calm - N/A   Clear
6:53 PM 70.0 °F - 9.0 °F 9% 29.91 in 10.0 mi WNW 6.9 mph - N/A   Clear
7:53 PM 62.1 °F - 9.0 °F 12% 29.91 in 10.0 mi NNW 5.8 mph - N/A   Clear
8:53 PM 48.0 °F - 10.0 °F 22% 29.95 in 10.0 mi South 4.6 mph - N/A   Clear
9:53 PM 46.0 °F 41.9 °F 12.9 °F 26% 29.97 in 10.0 mi South 8.1 mph - N/A   Clear
10:53 PM 43.0 °F 37.7 °F 15.1 °F 32% 29.98 in 10.0 mi South 9.2 mph - N/A   Clear
11:53 PM 42.1 °F 40.2 °F 12.9 °F 31% 29.98 in 10.0 mi Variable 3.5 mph - N/A   Clear